Location: Hradec Kralove
(50.2170°N, 15.8330°E)
Time: 03:26:18
(UTC+01:00)

N. Korean satellite - Pass Details

Date: 04 December 2022
Orbit: 407 x 442 km, 97.3° (Epoch: 05 February)

Event Time Altitude Azimuth Distance (km) Brightness Sun altitude
Rises 04:25:58 0° 26° (NNE) 2,524 10.5 -29.7°
Reaches altitude 10° 04:28:31 10° 46° (NE) 1,636 9.7 -29.3°
Maximum altitude 04:31:02 18° 92° (E) 1,193 9.3 -28.9°
Drops below altitude 10° 04:33:32 10° 138° (SE) 1,609 9.7 -28.5°
Sets 04:36:01 0° 158° (SSE) 2,466 10.5 -28.1°
